Location: Treviso
(45.6669°N, 12.2430°E)
Time: 08:40:01
(UTC+01:00)

ISS - Visible Passes

Search period start: 01 December 2021 00:00
Search period end: 11 December 2021 00:00
Orbit: 417 x 423 km, 51.6° (Epoch: 01 December)

Date Brightness Start Highest point End Pass type
(mag) Time Alt. Az. Time Alt. Az. Time Alt. Az.
01 Dec -2.5 17:08:31 10° WNW 17:11:31 28° N 17:14:26 11° ENE visible
01 Dec -2.1 18:45:31 10° WNW 18:47:25 29° NW 18:47:25 29° NW visible
02 Dec -3.1 17:58:20 10° NW 18:01:35 39° NNE 18:02:15 35° NE visible
02 Dec -0.2 19:35:11 10° WNW 19:35:15 10° WNW 19:35:15 10° WNW visible
03 Dec -2.8 17:11:07 10° NW 17:14:15 33° NNE 17:17:10 11° ENE visible
03 Dec -2.4 18:47:56 10° WNW 18:50:10 38° WNW 18:50:10 38° WNW visible
04 Dec -3.8 18:00:43 10° WNW 18:04:07 71° NNE 18:05:13 39° E visible
04 Dec -0.2 19:38:05 10° W 19:38:13 11° W 19:38:13 11° W visible
05 Dec -3.5 17:13:31 10° WNW 17:16:52 51° NNE 17:20:11 10° E visible
05 Dec -2.0 18:50:32 10° WNW 18:53:26 31° SW 18:53:26 31° SW visible
06 Dec -2.9 18:03:09 10° WNW 18:06:27 49° SW 18:08:53 16° SE visible
07 Dec -3.6 17:15:51 10° WNW 17:19:15 77° SSW 17:22:38 10° SE visible
07 Dec -0.6 18:54:05 10° WSW 18:55:34 12° SW 18:57:04 10° SSW visible
08 Dec -1.0 18:05:59 10° W 18:08:32 20° SW 18:11:03 10° S visible
09 Dec -1.6 17:18:23 10° WNW 17:21:25 30° SW 17:24:27 10° SSE visible
